Location: Unspecified
(0.0000°N, 0.0000°E)
Time: 11:12:44
(UTC+00:00)

Envisat - Pass Details

Date: 08 January 2018
Orbit: 764 x 766 km, 98.2° (Epoch: 18 January)

Event Time Altitude Azimuth Distance (km) Brightness Sun altitude
Rises 19:12:23 0° 143° (SE) 3,230 6.1 -15.1°
Reaches altitude 10° 19:15:09 10° 128° (SE) 2,301 5.2 -15.8°
Enters shadow 19:17:28 19° 103° (ESE) 1,746 4.4 -16.3°
